EW6504 Weather Reports


time (UTC)temp
F
wind
direction
speed
knots
gust
knots
rain 1hr
in
rain 24hr
in
rain mn
in
humidity
%
barometer
mb
20260507084007 44 360 7.0 14.8 0.00 0.00 0.00 80 1013.4
20260507083506 44 360 6.1 16.5 0.00 0.00 0.00 80 1013.5
20260507082506 44 360 8.7 16.5 0.00 0.00 0.00 80 1013.6
20260507082010 44 360 7.8 16.5 0.00 0.00 0.00 80 1013.6
20260507081524 44 360 7.8 17.4 0.00 0.00 0.00 80 1013.6
20260507081017 44 360 8.7 17.4 0.00 0.00 0.00 80 1013.7
20260507080511 44 360 8.7 17.4 0.00 0.00 0.00 80 1013.7
20260507080023 44 360 9.6 17.4 0.00 0.00 0.00 79 1013.8
20260507075503 44 360 9.6 15.6 0.00 0.00 0.00 79 1014.0
20260507075008 44 360 8.7 16.5 0.00 0.00 0.00 79 1014.1
20260507074004 44 360 8.7 16.5 0.00 0.00 0.00 79 1014.2
20260507073506 44 360 5.2 13.9 0.00 0.00 0.00 78 1014.4
20260507073023 44 360 7.8 13.9 0.00 0.00 0.00 78 1014.5
20260507072509 44 360 6.1 13.9 0.00 0.00 0.00 77 1014.6
20260507072006 45 360 6.1 13.9 0.00 0.00 0.00 77 1014.8
20260507071522 45 360 7.0 11.3 0.00 0.00 0.00 77 1014.7
20260507071009 45 360 3.5 10.4 0.00 0.00 0.00 77 1014.9
20260507070507 45 360 4.3 13.9 0.00 0.00 0.00 76 1014.9
20260507070025 45 360 4.3 14.8 0.00 0.00 0.00 76 1015.0
20260507065511 45 360 5.2 14.8 0.00 0.00 0.00 76 1015.0
20260507065013 45 360 5.2 15.6 0.00 0.00 0.00 75 1015.1
20260507064526 45 360 7.8 15.6 0.00 0.00 0.00 75 1015.1
20260507064007 45 360 7.0 13.0 0.00 0.00 0.00 75 1015.1
20260507063508 45 360 7.0 13.9 0.00 0.00 0.00 75 1015.2
20260507063015 46 360 5.2 13.9 0.00 0.00 0.00 74 1015.2
20260507062508 45 360 7.0 14.8 0.00 0.00 0.00 75 1015.2
20260507062007 46 360 7.8 14.8 0.00 0.00 0.00 75 1015.3
20260507061521 45 360 6.1 14.8 0.00 0.00 0.00 75 1015.3
20260507061013 46 360 7.0 14.8 0.00 0.00 0.00 75 1015.4
20260507060508 46 360 7.0 13.9 0.00 0.00 0.00 74 1015.4
20260507060034 46 360 7.0 13.9 0.00 0.00 0.00 74 1015.4
20260507055509 46 360 7.8 13.9 0.00 0.00 0.00 74 1015.5
20260507055008 46 360 7.8 13.9 0.00 0.00 0.00 74 1015.6
20260507054535 46 360 6.1 13.0 0.00 0.00 0.00 74 1015.6
20260507054008 46 360 5.2 13.9 0.00 0.00 0.00 73 1015.6
20260507053512 46 360 7.0 13.9 0.00 0.00 0.00 73 1015.6
20260507053014 46 360 7.0 13.0 0.00 0.00 0.00 73 1015.6
20260507052506 46 360 5.2 12.2 0.00 0.00 0.00 73 1015.6
20260507052004 45 360 2.6 9.6 0.00 0.00 0.00 73 1015.7
20260507051013 45 360 2.6 9.6 0.00 0.00 0.00 71 1015.7
20260507050508 45 360 2.6 7.8 0.00 0.00 0.00 70 1015.8
20260507050047 45 204 2.6 7.0 0.00 0.00 0.00 70 1015.8
20260507045511 45 211 2.6 7.0 0.00 0.00 0.00 69 1015.8
20260507045007 45 229 2.6 8.7 0.00 0.00 0.00 68 1015.9
20260507044525 45 210 2.6 8.7 0.00 0.00 0.00 67 1015.8
20260507044011 46 207 1.7 7.8 0.00 0.00 0.00 67 1016.0
20260507043507 46 214 2.6 7.8 0.00 0.00 0.00 67 1016.0
20260507043026 46 360 3.5 7.8 0.00 0.00 0.00 66 1016.0
20260507042511 46 211 3.5 8.7 0.00 0.00 0.00 66 1016.1
20260507042014 46 215 3.5 9.6 0.00 0.00 0.00 66 1016.1
20260507041004 46 224 4.3 7.8 0.00 0.00 0.00 66 1016.2
20260507040507 46 202 1.7 7.8 0.00 0.00 0.00 66 1016.3
20260507035506 46 360 2.6 7.8 0.00 0.00 0.00 66 1016.3
20260507035011 47 213 2.6 7.8 0.00 0.00 0.00 66 1016.4
20260507034534 47 215 2.6 7.8 0.00 0.00 0.00 65 1016.4
20260507034010 47 207 2.6 7.8 0.00 0.00 0.00 65 1016.5
20260507033509 47 197 3.5 7.8 0.00 0.00 0.00 64 1016.6
20260507033033 47 213 4.3 7.8 0.00 0.00 0.00 64 1016.6
20260507032504 48 209 2.6 7.8 0.00 0.00 0.00 64 1016.6
20260507032003 48 205 2.6 7.8 0.00 0.00 0.00 63 1016.6
20260507031515 48 225 4.3 8.7 0.00 0.00 0.00 63 1016.5
20260507031004 48 360 3.5 8.7 0.00 0.00 0.00 63 1016.5
20260507030508 48 217 5.2 9.6 0.00 0.00 0.00 63 1016.5
20260507030021 49 225 4.3 9.6 0.00 0.00 0.00 62 1016.6
20260507025508 49 212 3.5 7.8 0.00 0.00 0.00 62 1016.6
20260507025015 49 221 2.6 9.6 0.00 0.00 0.00 61 1016.5
20260507024527 49 213 2.6 9.6 0.00 0.00 0.00 61 1016.5
20260507024007 49 215 2.6 10.4 0.00 0.00 0.00 61 1016.6
20260507023506 50 213 3.5 10.4 0.00 0.00 0.00 60 1016.6
20260507023023 50 212 5.2 10.4 0.00 0.00 0.00 59 1016.5
20260507022511 51 223 5.2 10.4 0.00 0.00 0.00 58 1016.5
20260507022005 51 193 5.2 13.0 0.00 0.00 0.00 58 1016.4
20260507021518 51 214 7.8 15.6 0.00 0.00 0.00 57 1016.4
20260507021004 52 219 8.7 15.6 0.00 0.00 0.00 56 1016.4
20260507020504 52 360 8.7 15.6 0.00 0.00 0.00 55 1016.4
20260507020022 52 360 9.6 14.8 0.00 0.00 0.00 54 1016.4
20260507015506 53 201 7.8 15.6 0.00 0.00 0.00 52 1016.4
20260507015006 53 360 8.7 15.6 0.00 0.00 0.00 50 1016.4
20260507014524 54 225 8.7 13.9 0.00 0.00 0.00 47 1016.3
20260507014010 55 214 5.2 12.2 0.00 0.00 0.00 46 1016.3
20260507013508 55 215 5.2 12.2 0.00 0.00 0.00 45 1016.3
20260507013030 55 215 7.0 11.3 0.00 0.00 0.00 45 1016.3
20260507012512 55 205 2.6 8.7 0.00 0.00 0.00 46 1016.2
20260507012008 55 222 5.2 9.6 0.00 0.00 0.00 46 1016.1
20260507011529 55 360 5.2 9.6 0.00 0.00 0.00 46 1016.1
20260507011008 55 217 4.3 9.6 0.00 0.00 0.00 47 1016.1
20260507010506 55 216 4.3 8.7 0.00 0.00 0.00 46 1016.1
20260507010026 55 218 2.6 10.4 0.00 0.00 0.00 46 1016.2
20260507005506 55 219 4.3 11.3 0.00 0.00 0.00 45 1016.1
20260507005007 55 217 6.1 11.3 0.00 0.00 0.00 45 1016.1
20260507004520 55 213 4.3 10.4 0.00 0.00 0.00 43 1016.1
20260507004008 55 223 3.5 9.6 0.00 0.00 0.00 43 1016.1
20260507003507 55 226 5.2 11.3 0.00 0.00 0.00 42 1016.0
20260507002508 57 220 7.0 12.2 0.00 0.00 0.00 41 1016.1
20260507002010 57 205 6.1 15.6 0.00 0.00 0.00 41 1016.2
20260507001525 58 250 6.1 15.6 0.00 0.00 0.00 39 1016.2
20260507001008 58 213 6.1 14.8 0.00 0.00 0.00 37 1016.3
20260507000512 58 218 7.8 15.6 0.00 0.00 0.00 37 1016.3
20260507000032 58 221 4.3 15.6 0.00 0.00 0.00 35 1016.4
20260506235509 57 250 5.2 10.4 0.00 0.00 0.00 34 1016.5
20260506235016 57 252 3.5 9.6 0.00 0.00 0.00 34 1016.5
20260506234527 57 360 3.5 8.7 0.00 0.00 0.00 34 1016.5
20260506234010 57 231 1.7 10.4 0.00 0.00 0.00 34 1016.5
20260506233511 57 238 1.7 10.4 0.00 0.00 0.00 34 1016.6
20260506233026 57 220 5.2 10.4 0.00 0.00 0.00 34 1016.6
20260506232507 57 261 2.6 8.7 0.00 0.00 0.00 34 1016.6
20260506232010 56 232 2.6 7.8 0.00 0.00 0.00 34 1016.6
20260506231008 57 217 5.2 12.2 0.00 0.00 0.00 34 1016.6
20260506230029 58 221 8.7 12.2 0.00 0.00 0.00 33 1016.4
20260506225515 57 216 4.3 10.4 0.00 0.00 0.00 33 1016.5
20260506225007 57 234 5.2 10.4 0.00 0.00 0.00 33 1016.5
20260506224527 57 234 2.6 7.0 0.00 0.00 0.00 33 1016.5
20260506224010 57 240 2.6 7.0 0.00 0.00 0.00 32 1016.5
20260506223515 57 232 3.5 9.6 0.00 0.00 0.00 33 1016.6
20260506223027 57 238 2.6 9.6 0.00 0.00 0.00 33 1016.6
20260506222508 57 240 3.5 13.0 0.00 0.00 0.00 32 1016.6
20260506222013 58 250 4.3 13.0 0.00 0.00 0.00 31 1016.6
20260506221522 59 259 5.2 12.2 0.00 0.00 0.00 33 1016.7
20260506221008 59 243 5.2 12.2 0.00 0.00 0.00 31 1016.6
20260506220510 59 212 3.5 11.3 0.00 0.00 0.00 33 1016.7
20260506220031 58 255 2.6 7.8 0.00 0.00 0.00 32 1016.7
20260506215507 57 260 2.6 7.0 0.00 0.00 0.00 34 1016.8
20260506215012 56 281 1.7 7.0 0.00 0.00 0.00 33 1016.9
20260506214524 56 260 1.7 7.8 0.00 0.00 0.00 32 1017.0
20260506214011 56 246 1.7 8.7 0.00 0.00 0.00 32 1017.0
20260506213514 56 254 4.3 10.4 0.00 0.00 0.00 32 1017.2
20260506213031 57 248 6.1 10.4 0.00 0.00 0.00 33 1017.2
20260506212504 57 276 5.2 12.2 0.00 0.00 0.00 32 1017.1
20260506212004 57 253 0.9 12.2 0.00 0.00 0.00 32 1017.4
20260506211521 58 299 3.5 12.2 0.00 0.00 0.00 32 1017.5
20260506211005 58 269 5.2 8.7 0.00 0.00 0.00 32 1017.6
20260506210509 57 303 0.9 8.7 0.00 0.00 0.00 33 1017.6
20260506210033 57 231 1.7 9.6 0.00 0.00 0.00 33 1017.7
20260506205509 57 217 4.3 12.2 0.00 0.00 0.00 33 1017.8
20260506205011 56 360 5.2 14.8 0.00 0.00 0.00 33 1017.9
20260506204511 57 252 5.2 14.8 0.00 0.00 0.00 32 1017.9
20260506204002 57 360 6.1 11.3 0.00 0.00 0.00 33 1017.9
20260506203502 57 249 3.5 13.0 0.00 0.00 0.00 32 1017.9
20260506203022 57 224 3.5 13.0 0.00 0.00 0.00 33 1017.9
20260506202504 57 238 2.6 11.3 0.00 0.00 0.00 34 1018.0
20260506202008 55 245 1.7 8.7 0.00 0.00 0.00 34 1018.1
20260506201518 55 264 2.6 8.7 0.00 0.00 0.00 33 1018.2
20260506201005 55 266 5.2 10.4 0.00 0.00 0.00 34 1018.2
20260506200508 55 232 4.3 10.4 0.00 0.00 0.00 34 1018.2
20260506200022 55 265 3.5 11.3 0.00 0.00 0.00 33 1018.4
20260506195509 56 237 3.5 11.3 0.00 0.00 0.00 33 1018.4
20260506195010 56 287 0.9 10.4 0.00 0.00 0.00 35 1018.4
20260506194523 55 264 0.9 10.4 0.00 0.00 0.00 34 1018.4
20260506194011 55 277 2.6 10.4 0.00 0.00 0.00 34 1018.4
20260506193502 56 273 5.2 8.7 0.00 0.00 0.00 35 1018.5
20260506193015 55 281 0.9 7.0 0.00 0.00 0.00 34 1018.5
20260506192503 55 26 1.7 7.0 0.00 0.00 0.00 35 1018.5
20260506192007 54 344 0.0 7.8 0.00 0.00 0.00 35 1018.6
20260506191516 55 277 1.7 7.8 0.00 0.00 0.00 34 1018.7
20260506191007 55 252 1.7 10.4 0.00 0.00 0.00 36 1018.8
20260506190508 55 284 0.9 13.0 0.00 0.00 0.00 35 1018.8
20260506190020 55 321 3.5 13.0 0.00 0.00 0.00 34 1018.8
20260506185505 56 330 5.2 12.2 0.00 0.00 0.00 34 1018.9
20260506185006 55 300 4.3 12.2 0.00 0.00 0.00 36 1019.0
20260506184524 55 238 3.5 12.2 0.00 0.00 0.00 35 1019.0
20260506184008 54 360 6.1 9.6 0.00 0.00 0.00 36 1019.0
20260506183509 53 301 2.6 8.7 0.00 0.00 0.00 37 1018.9
20260506183026 53 265 0.0 9.6 0.00 0.00 0.00 36 1019.0
20260506182502 53 284 1.7 9.6 0.00 0.00 0.00 37 1019.1
20260506182007 53 269 3.5 9.6 0.00 0.00 0.00 38 1019.3
20260506181520 54 233 2.6 9.6 0.00 0.00 0.00 36 1019.3
20260506181006 53 309 2.6 8.7 0.00 0.00 0.00 37 1019.4
20260506180510 53 296 4.3 8.7 0.00 0.00 0.00 37 1019.4
20260506180020 53 277 3.5 8.7 0.00 0.00 0.00 35 1019.4
20260506175509 53 265 2.6 7.0 0.00 0.00 0.00 38 1019.5
20260506175008 53 330 0.0 10.4 0.00 0.00 0.00 36 1019.5
20260506174519 54 347 3.5 10.4 0.00 0.00 0.00 37 1019.5
20260506174008 53 281 1.7 9.6 0.00 0.00 0.00 37 1019.5
20260506173507 53 280 4.3 9.6 0.00 0.00 0.00 37 1019.5
20260506173024 52 263 4.3 8.7 0.00 0.00 0.00 38 1019.6
20260506172507 52 273 1.7 8.7 0.00 0.00 0.00 38 1019.7
20260506172009 52 26 0.9 8.7 0.00 0.00 0.00 37 1019.7
20260506171537 52 360 2.6 12.2 0.00 0.00 0.00 38 1019.7
20260506171003 52 249 3.5 18.2 0.00 0.00 0.00 38 1019.8
20260506170506 53 300 6.1 18.2 0.00 0.00 0.00 37 1019.8
20260506170014 53 253 3.5 18.2 0.00 0.00 0.00 37 1019.6
20260506165504 52 265 0.0 6.1 0.00 0.00 0.00 37 1019.7
20260506165007 51 265 0.9 6.1 0.00 0.00 0.00 37 1019.7
20260506164523 51 275 3.5 12.2 0.00 0.00 0.00 37 1019.8
20260506164013 52 344 3.5 12.2 0.00 0.00 0.00 37 1019.8
20260506163508 52 298 4.3 10.4 0.00 0.00 0.00 39 1019.8
20260506163022 52 311 1.7 7.8 0.00 0.00 0.00 37 1019.8
20260506162506 52 293 0.9 7.8 0.00 0.00 0.00 38 1019.8
20260506162012 52 336 1.7 7.8 0.00 0.00 0.00 38 1019.9
20260506161529 51 40 0.0 8.7 0.00 0.00 0.00 38 1019.9
20260506161010 51 265 5.2 8.7 0.00 0.00 0.00 38 1020.0
20260506160513 51 273 3.5 12.2 0.00 0.00 0.00 38 1019.9
20260506160025 51 28 5.2 12.2 0.00 0.00 0.00 39 1019.9
20260506155504 51 296 6.1 12.2 0.00 0.00 0.00 38 1020.0
20260506155007 50 317 2.6 7.0 0.00 0.00 0.00 39 1019.9
20260506154521 51 341 0.9 4.3 0.00 0.00 0.00 38 1020.0
20260506154007 51 31 0.9 6.1 0.00 0.00 0.00 39 1019.9
20260506153512 50 24 0.9 7.0 0.00 0.00 0.00 39 1020.0
20260506153022 50 277 0.0 8.7 0.00 0.00 0.00 39 1020.0
20260506152509 50 269 3.5 8.7 0.00 0.00 0.00 40 1020.0
20260506152012 50 296 3.5 7.8 0.00 0.00 0.00 41 1020.0
20260506151532 49 288 0.9 6.1 0.00 0.00 0.00 43 1020.0
20260506151013 49 269 1.7 5.2 0.00 0.00 0.00 42 1019.9
20260506150516 49 275 0.9 5.2 0.00 0.00 0.00 42 1019.8
20260506150031 49 274 0.9 6.1 0.00 0.00 0.00 42 1019.8
20260506145509 49 263 1.7 6.1 0.00 0.00 0.00 43 1019.8
20260506145005 49 275 1.7 4.3 0.00 0.00 0.00 42 1019.8
20260506144518 49 292 1.7 3.5 0.00 0.00 0.00 42 1019.7
20260506144009 48 281 0.9 5.2 0.00 0.00 0.00 45 1019.8
20260506143510 48 281 0.9 5.2 0.00 0.00 0.00 44 1019.8
20260506143036 48 269 0.0 5.2 0.00 0.00 0.00 44 1019.8
20260506142510 47 277 0.9 3.5 0.00 0.00 0.00 48 1019.7
20260506142010 47 277 0.0 2.6 0.00 0.00 0.00 48 1019.7
20260506141525 47 277 0.0 1.7 0.00 0.00 0.00 50 1019.7
20260506141008 47 277 0.0 1.7 0.00 0.00 0.00 53 1019.7
20260506140511 46 277 0.0 1.7 0.00 0.00 0.00 52 1019.6
20260506140030 46 277 0.0 2.6 0.00 0.00 0.00 52 1019.7
20260506135511 46 277 0.0 2.6 0.00 0.00 0.00 54 1019.8
20260506135009 45 277 0.0 2.6 0.00 0.00 0.00 56 1019.8
20260506134528 45 277 0.9 2.6 0.00 0.00 0.00 56 1019.8
20260506134013 44 277 0.0 2.6 0.00 0.00 0.00 58 1019.8
20260506133503 44 277 0.0 2.6 0.00 0.00 0.00 58 1019.8
20260506133020 44 278 0.9 1.7 0.00 0.00 0.00 59 1019.7
20260506132518 44 277 0.0 2.6 0.00 0.00 0.00 60 1019.6
20260506132009 44 277 0.9 2.6 0.00 0.00 0.00 61 1019.4
20260506131525 43 278 0.0 1.7 0.00 0.00 0.00 63 1019.3
20260506131010 43 277 0.0 2.6 0.00 0.00 0.00 62 1019.2
20260506130509 43 277 0.0 2.6 0.00 0.00 0.00 62 1019.2
20260506130023 43 277 0.9 2.6 0.00 0.00 0.00 62 1019.2
20260506125508 42 277 0.0 2.6 0.00 0.00 0.00 62 1019.1
20260506125011 42 277 0.0 2.6 0.00 0.00 0.00 63 1019.0
20260506124526 42 276 0.0 2.6 0.00 0.00 0.00 63 1018.9
20260506124010 42 276 0.0 2.6 0.00 0.00 0.00 63 1018.9
20260506123509 42 277 0.9 1.7 0.00 0.00 0.00 65 1018.8
20260506123028 42 277 0.0 1.7 0.00 0.00 0.00 65 1018.7
20260506122512 42 276 0.0 1.7 0.00 0.00 0.00 65 1018.6
20260506122011 42 276 0.0 1.7 0.00 0.00 0.00 65 1018.5
20260506121516 41 276 0.0 1.7 0.00 0.00 0.00 65 1018.5
20260506121010 41 276 0.0 1.7 0.00 0.00 0.00 65 1018.5
20260506120515 41 276 0.0 1.7 0.00 0.00 0.00 67 1018.4
20260506120022 41 276 0.0 0.9 0.00 0.00 0.00 66 1018.4
20260506115508 41 276 0.0 0.9 0.00 0.00 0.00 66 1018.2
20260506115013 41 276 0.0 0.9 0.00 0.00 0.00 66 1018.2
20260506114537 41 278 0.0 0.9 0.00 0.00 0.00 66 1018.1
20260506114008 41 350 0.0 0.9 0.00 0.00 0.00 65 1018.0
20260506113512 41 350 0.0 0.9 0.00 0.00 0.00 66 1018.1
20260506113026 41 360 0.0 0.9 0.00 0.00 0.00 65 1018.0
20260506112509 41 360 0.0 0.9 0.00 0.00 0.00 65 1018.0
20260506112011 41 360 0.0 0.9 0.00 0.00 0.00 65 1018.0
20260506111525 41 360 0.0 0.9 0.00 0.00 0.00 64 1018.0
20260506111006 41 360 0.0 0.0 0.00 0.00 0.00 64 1017.9
20260506110511 41 360 0.0 0.0 0.00 0.00 0.00 64 1017.9
20260506110021 41 360 0.0 0.9 0.00 0.00 0.00 64 1017.8
20260506105507 41 360 0.0 0.9 0.00 0.00 0.00 65 1017.7
20260506105010 41 360 0.0 0.9 0.00 0.00 0.00 64 1017.7
20260506104527 41 360 0.0 0.9 0.00 0.00 0.00 64 1017.7
20260506104010 41 360 0.0 0.9 0.00 0.00 0.00 65 1017.6
20260506103511 41 360 0.0 1.7 0.00 0.00 0.00 65 1017.6
20260506103025 41 360 0.0 1.7 0.00 0.00 0.00 66 1017.6
20260506102511 41 360 0.0 0.9 0.00 0.00 0.00 66 1017.6
20260506102010 41 360 0.0 1.7 0.00 0.00 0.00 66 1017.6
20260506101545 41 360 0.0 1.7 0.00 0.00 0.00 64 1017.6
20260506101015 41 360 0.0 1.7 0.00 0.00 0.00 64 1017.6
20260506100513 41 360 0.0 1.7 0.00 0.00 0.00 63 1017.5
20260506100025 41 360 0.0 1.7 0.00 0.00 0.00 62 1017.5
20260506093514 41 360 0.0 1.7 0.00 0.00 0.00 62 1017.5
20260506093024 41 360 0.0 1.7 0.00 0.00 0.00 62 1017.5
20260506092508 41 360 0.0 1.7 0.00 0.00 0.00 62 1017.4
20260506092004 41 360 0.0 1.7 0.00 0.00 0.00 62 1017.4
20260506091519 41 360 0.0 1.7 0.00 0.00 0.00 61 1017.4
20260506091007 42 360 0.0 1.7 0.00 0.00 0.00 61 1017.4
20260506090504 42 360 0.0 1.7 0.00 0.00 0.00 60 1017.3
20260506090014 42 360 0.0 0.9 0.00 0.00 0.00 60 1017.3
20260506085505 42 360 0.0 1.7 0.00 0.00 0.00 60 1017.3
20260506085009 42 360 0.0 1.7 0.00 0.00 0.00 59 1017.2
20260506084521 42 360 0.0 1.7 0.00 0.00 0.00 58 1017.2